Location: ??????
(41.3164°N, 22.6615°E)
Time: 22:43:57
(UTC+00:00)

Cosmos 2227 Rocket - Pass Details

Date: 16 October 2021
Orbit: 839 x 845 km, 71.0° (Epoch: 05 December)

Event Time Altitude Azimuth Distance (km) Brightness Sun altitude
Rises 16:00:48 0° 338° (NNW) 3,412 5.5 -3.4°
Reaches altitude 10° 16:03:17 10° 342° (NNW) 2,473 4.8 -3.9°
Maximum altitude 16:08:55 65° 64° (ENE) 925 2.2 -4.9°
Drops below altitude 10° 16:14:31 10° 146° (SE) 2,455 4.4 -6.0°
Sets 16:16:59 0° 149° (SSE) 3,385 5.1 -6.4°
